Kinston, NC

2:47 PM EDT on May 29, 2017 (GMT -0400)
Kinston Regional Jetport / Stallings Field

Weather History for KISO - April, 2014

Change the Weather History Date:

Wednesday, April 30, 2014

  Actual Average Record
Temperature  
Mean Temperature 74 °F -  
Max Temperature 80 °F 74 °F 91 °F (1974)
Min Temperature 68 °F 53 °F 32 °F (1999)
Cooling Degree Days 9    
Growing Degree Days 24 (Base 50)    
Moisture  
Dew Point 69 °F    
Average Humidity 91    
Maximum Humidity 100    
Minimum Humidity 65    
Precipitation  
Precipitation 0.05 in - - ()
Sea Level Pressure  
Sea Level Pressure 30.03 in    
Wind  
Wind Speed 9 mph (South)    
Max Wind Speed 20 mph    
Max Gust Speed 25 mph    
Visibility 7 miles    
Events Rain    
Averages and records for this station are not official NWS values.
T = Trace of Precipitation, MM = Missing Value Source: NWS Daily Summary

Daily Weather History Graph

Daily Weather History Graph

Search for Another Location

Airport or City:

Trip Planner

Search our weather history database for the weather conditions in past years. The results will help you decide how hot, cold, wet, or windy it might be!

Date:

Astronomy

Apr. 30, 2014 Rise Set
Actual Time 6:20 AM EDT 7:55 PM EDT
Civil Twilight 5:53 AM EDT 8:22 PM EDT
Nautical Twilight 5:20 AM EDT 8:55 PM EDT
Astronomical Twilight 4:46 AM EDT 9:30 PM EDT
Moon 7:20 AM EDT (4/30) 9:30 PM EDT (4/30)
Length of Visible Light 14h 29m
Length of Day
13h 35m
New Moon, 2% of the Moon is Illuminated
Apr 30
New Moon
May 6
First Quarter
May 14
Full
May 21
Last Quarter
May 28
New

Hourly Weather History & Observations

Time (EDT) Temp. Heat Index Dew Point Humidity Pressure Visibility Wind Dir Wind Speed Gust Speed Precip Events Conditions
12:15 AM 71.6 °F - 69.4 °F 93% 30.07 in 7.0 mi SSE 4.6 mph - N/A   Clear
12:35 AM 71.4 °F - 69.6 °F 94% 30.07 in 7.0 mi SSE 4.6 mph - N/A   Clear
12:55 AM 71.6 °F - 70.0 °F 95% 30.07 in 7.0 mi SE 4.6 mph - N/A   Clear
1:15 AM 71.2 °F - 69.8 °F 95% 30.06 in 7.0 mi SE 5.8 mph - N/A   Clear
1:35 AM 71.2 °F - 70.0 °F 96% 30.05 in 7.0 mi SE 6.9 mph - N/A   Clear
1:55 AM 71.1 °F - 69.8 °F 96% 30.06 in 5.0 mi SSE 4.6 mph - N/A   Scattered Clouds
2:15 AM 70.9 °F - 69.8 °F 96% 30.05 in 7.0 mi SSE 6.9 mph - N/A   Scattered Clouds
2:35 AM 70.9 °F - 69.8 °F 96% 30.05 in 7.0 mi SSE 5.8 mph - N/A   Scattered Clouds
2:55 AM 70.9 °F - 69.8 °F 96% 30.06 in 7.0 mi South 5.8 mph - N/A   Mostly Cloudy
3:15 AM 70.7 °F - 69.6 °F 96% 30.06 in 7.0 mi SSE 8.1 mph - N/A   Mostly Cloudy
3:35 AM 70.7 °F - 69.4 °F 96% 30.05 in 7.0 mi SSE 9.2 mph - N/A   Scattered Clouds
3:55 AM 71.1 °F - 69.8 °F 96% 30.05 in 7.0 mi SSE 9.2 mph - N/A   Clear
4:15 AM 71.2 °F - 69.8 °F 95% 30.05 in 7.0 mi South 9.2 mph - N/A   Scattered Clouds
4:35 AM 71.4 °F - 69.8 °F 95% 30.05 in 7.0 mi South 8.1 mph - N/A   Scattered Clouds
4:55 AM 71.2 °F - 69.8 °F 95% 30.04 in 7.0 mi South 10.4 mph - N/A   Scattered Clouds
5:15 AM 71.2 °F - 69.8 °F 95% 30.04 in 7.0 mi SSE 9.2 mph - N/A   Scattered Clouds
5:35 AM 71.2 °F - 69.8 °F 95% 30.04 in 7.0 mi SSE 12.7 mph - N/A   Scattered Clouds
5:55 AM 71.6 °F - 69.8 °F 94% 30.05 in 7.0 mi South 11.5 mph - N/A   Scattered Clouds
6:15 AM 71.6 °F - 69.8 °F 94% 30.05 in 7.0 mi SSE 11.5 mph 16.1 mph N/A   Scattered Clouds
6:35 AM 71.4 °F - 69.6 °F 94% 30.05 in 7.0 mi SSE 9.2 mph - N/A   Scattered Clouds
6:56 AM 71.6 °F - 69.8 °F 94% 30.05 in 2.5 mi SSE 9.2 mph 17.3 mph N/A   Scattered Clouds
7:56 AM 71.6 °F - 69.8 °F 94% 30.07 in 4.0 mi South 10.4 mph - N/A   Overcast
8:56 AM 73.4 °F - 69.8 °F 88% 30.08 in 5.0 mi South 12.7 mph - N/A   Mostly Cloudy
9:56 AM 77.0 °F - 69.8 °F 78% 30.06 in 7.0 mi South 16.1 mph 23.0 mph N/A   Scattered Clouds
10:56 AM 78.8 °F - 69.8 °F 74% 30.05 in 10.0 mi South 15.0 mph 21.9 mph N/A   Scattered Clouds
11:56 AM 80.6 °F 83.2 °F 68.0 °F 65% 30.04 in - South 17.3 mph 24.2 mph N/A   Scattered Clouds
12:56 PM 78.8 °F - 68.0 °F 69% 30.02 in 10.0 mi South 19.6 mph 25.3 mph N/A   Mostly Cloudy
1:56 PM 75.2 °F - 69.8 °F 83% 30.02 in 5.0 mi South 15.0 mph 20.7 mph N/A Rain Light Rain
2:56 PM 75.2 °F - 69.8 °F 83% 30.02 in 7.0 mi South 15.0 mph 24.2 mph N/A Rain Light Rain
3:37 PM 73.4 °F - 69.8 °F 88% 30.05 in 2.5 mi WSW 19.6 mph 25.3 mph N/A Rain Heavy Rain
3:56 PM 68.0 °F - 64.4 °F 88% 30.02 in 4.0 mi South 13.8 mph 25.3 mph N/A Rain Rain
4:56 PM 68.0 °F - 66.2 °F 94% 29.95 in 10.0 mi SSE 10.4 mph - N/A Rain Light Rain
5:56 PM 69.8 °F - 66.2 °F 88% 29.97 in 10.0 mi South 13.8 mph 18.4 mph N/A   Clear
6:56 PM 69.8 °F - 66.2 °F 88% 29.99 in 10.0 mi South 10.4 mph - N/A   Mostly Cloudy
7:56 PM 69.8 °F - 66.2 °F 88% 29.99 in 10.0 mi South 8.1 mph - N/A   Mostly Cloudy
8:56 PM 68.0 °F - 68.0 °F 100% 29.99 in 10.0 mi South 9.2 mph - N/A   Mostly Cloudy
10:15 PM 70.2 °F - 68.9 °F 96% 29.99 in 10.0 mi South 8.1 mph - N/A   Mostly Cloudy
10:35 PM 70.5 °F - 69.1 °F 95% 29.98 in 7.0 mi South 9.2 mph - N/A   Overcast
11:15 PM 71.1 °F - 69.8 °F 96% 29.97 in 7.0 mi South 15.0 mph 19.6 mph N/A   Overcast
11:35 PM 71.6 °F - 69.8 °F 94% 29.96 in 7.0 mi SSW 11.5 mph - N/A   Mostly Cloudy
11:55 PM 71.4 °F - 69.8 °F 95% 29.95 in 7.0 mi SSW 11.5 mph - N/A   Scattered Clouds